Погода в Зеленогорске

Россия / Республика Марий Эл     56°31′12″N   48°47′25″E
темп.,
°C
ветер,
м/с
пор.,
м/с
влажн.,
%
обл.,
%
осадки,
мм/ч
давл.,
гПа
погр.,
м
8 марта, пн
пн800:00−7ю61394100 1.3 995823
03:00−6ю51095100 2.1 992597
06:00−6ююв3896100 1.4 989433
09:00−5з81392100 2.6 991934
12:00−5зюз7127651 0.1 994905
15:00−5з588659 0.2 997972
18:00−8зюз3795100 0.1 998280
21:00−10з379697 0.2 1000164
9 марта, вт
вт900:00−13зсз379768 0.0 1002130
03:00−15зсз359875 0.1 1005103
06:00−17зсз239995 0.1 100748
09:00−14зсз239493 0.1 1009239
12:00−11сз2285100 0.1 1010562
15:00−11ссз3388100 0.1 1011536
18:00−14с369499 0.1 1011288
21:00−15с379598 0.2 1013288
10 марта, ср
ср1000:00−18с389694 0.1 1013255
03:00−22с489795 0.1 1014231
06:00−25с4109688 0.0 1015252
09:00−24с589388 0.0 1017322
12:00−21с589156 0.0 1018436
15:00−20ссз588873 0.0 1019541
18:00−22ссз3109377 0.0 1021289
21:00−25ссз379738 0.0 1022129
11 марта, чт
чт1100:00−25сз37980 0.0 1023124
03:00−26зсз35990 0.0 1023102
06:00−24зсз389776 0.0 1023217
09:00−19зсз479387 0.1 1023328
12:00−14сз4891100 0.1 1022464
15:00−9сз5988100 0.4 1023755
18:00−10сз3118891 0.0 1024402
21:00−13ссз399265 0.0 1026223
12 марта, пт
пт1200:00−16сз36950 0.0 102897
03:00−17сз23930 0.0 102941
06:00−18зсз23940 0.0 103134
09:00−13з24910 0.0 1032204
12:00−8зюз35830 0.0 1032402
15:00−6юз36810 0.0 1031604
18:00−12юз37940 0.0 1030128
21:00−15ююз36960 0.0 1030119